"Pseudo-MPEC" for X72088

Created 2021 Feb 7 10:07:38 UT using Find_Orb

Click here for an explanation of pseudo-MPECs

 
 Astrometry: 
     X72088   C2021 01 17CjmvhL]%*C+7$dYZ*x5lwH$ceKAstrometrytredacted;Ja`=^ND29
     X72088   C2021 01 17Du-(l?wVRQj\PZNM(SjGX?Nh[4`?*n#2gclickI+%]oJ?y*HfUJ3D29
     X72088   C2021 01 173iRbW3vq,m!Upgvhere@Lfor:y/c#)=-+ws`H`s7mexplanationD29

Station data:
(D29) Purple Mountain Observatory, XuYi Station  (N32.734366 E118.463900)
   China.  Observers H. B. Zhao, B. Li, G. Zhaori, R. Q. Hong, L. F. Hu.
   Measurers H. B. Zhao, B. Li. H. Lu, G. Zhaori. 1.04-m f/1.8 Schmidt + CCD.

Orbital elements:  X72088
   Perihelion 2021 Mar 3.975575 +/- 78.0129 TT = 23:24:49 (JD 2459277.475575)
Epoch 2021 Jan 17.0 TT = JDT 2459231.5   Earth MOID: 0.0018   AutoNEOCP
M 309.89467347 +/- 89.393890        (J2000 ecliptic)
n   1.08982489 +/- 0.995081         Peri.   20.10122 +/- 94.733432
a   0.93518651 +/- 0.569247         Node   140.12416 +/- 109.66644
e   0.0922623 +/- 0.226346          Incl.    7.13943 +/- 58.742936
P   0.90/330.32d           H 20.4   G  0.15   U 12.7  SR
q 0.84890400 +/- 0.496825    Q 1.02146901 +/- 12.5908
From 3 observations 2021 Jan. 17 (40.7 min); mean residual 0".11
Residuals in arcseconds: 
210117 D29  .10-  .06+    210117 D29  .21+  .12-    210117 D29  .04-  .08+    

Ephemerides (geocentric):
Date (UTC) HH   RA              Dec         delta   r     elong  mag " sig PA
---- -- -- --  -------------   -----------  ------ ------ -----  --- ---- ---
2021 02 07 10  00 32 11.401   -03 07 26.01  .20950 .85998  47.9 21?? 578' 134
2021 02 07 11  00 32 11.139   -03 05 55.70  .20937 .85995  47.8 21?? 583' 134
2021 02 07 12  00 32 10.865   -03 04 25.34  .20925 .85991  47.8 21?? 588' 134
2021 02 07 13  00 32 10.578   -03 02 54.93  .20912 .85987  47.8 21?? 592' 134
2021 02 07 14  00 32 10.278   -03 01 24.48  .20900 .85984  47.7 21?? 597' 134
2021 02 07 15  00 32 09.966   -02 59 53.97  .20887 .85980  47.7 21?? 602' 135
2021 02 07 16  00 32 09.641   -02 58 23.42  .20875 .85977  47.7 21?? 606' 135
2021 02 07 17  00 32 09.303   -02 56 52.81  .20862 .85973  47.6 21?? 611' 135
2021 02 07 18  00 32 08.953   -02 55 22.16  .20850 .85969  47.6 21?? 616' 135
2021 02 07 19  00 32 08.590   -02 53 51.46  .20837 .85966  47.6 21?? 620' 135
2021 02 07 20  00 32 08.214   -02 52 20.71  .20825 .85962  47.5 21?? 625' 135
2021 02 07 21  00 32 07.825   -02 50 49.91  .20812 .85959  47.5 21?? 630' 136
2021 02 07 22  00 32 07.423   -02 49 19.06  .20800 .85955  47.5 21?? 635' 136
2021 02 07 23  00 32 07.009   -02 47 48.16  .20788 .85951  47.4 21?? 640' 136
2021 02 08 00  00 32 06.582   -02 46 17.22  .20775 .85948  47.4 21?? 644' 136
2021 02 08 01  00 32 06.142   -02 44 46.22  .20763 .85944  47.4 21?? 649' 136
2021 02 08 02  00 32 05.689   -02 43 15.18  .20750 .85941  47.3 21?? 654' 137
2021 02 08 03  00 32 05.223   -02 41 44.08  .20738 .85937  47.3 21?? 659' 137
2021 02 08 04  00 32 04.745   -02 40 12.94  .20725 .85934  47.2 21?? 664' 137
2021 02 08 05  00 32 04.253   -02 38 41.75  .20713 .85930  47.2 21?? 669' 137
2021 02 08 06  00 32 03.749   -02 37 10.51  .20701 .85927  47.2 21?? 674' 137
2021 02 08 07  00 32 03.231   -02 35 39.22  .20688 .85923  47.1 21?? 679' 138
2021 02 08 08  00 32 02.701   -02 34 07.88  .20676 .85920  47.1 21?? 683' 138
2021 02 08 09  00 32 02.157   -02 32 36.49  .20663 .85916  47.1 21?? 688' 138
2021 02 08 10  00 32 01.600   -02 31 05.05  .20651 .85912  47.0 21?? 693' 138
2021 02 08 11  00 32 01.031   -02 29 33.57  .20639 .85909  47.0 21?? 698' 138
2021 02 08 12  00 32 00.448   -02 28 02.03  .20626 .85905  47.0 21?? 703' 139
2021 02 08 13  00 31 59.853   -02 26 30.45  .20614 .85902  46.9 21?? 708' 139
2021 02 08 14  00 31 59.244   -02 24 58.81  .20602 .85898  46.9 21?? 713' 139
2021 02 08 15  00 31 58.622   -02 23 27.13  .20589 .85895  46.8 21?? 718' 139
2021 02 08 16  00 31 57.987   -02 21 55.40  .20577 .85891  46.8 21?? 723' 139
2021 02 08 17  00 31 57.339   -02 20 23.62  .20565 .85888  46.8 21?? 727' 140
2021 02 08 18  00 31 56.677   -02 18 51.79  .20552 .85885  46.7 21?? 732' 140
2021 02 08 19  00 31 56.003   -02 17 19.91  .20540 .85881  46.7 21?? 737' 140
2021 02 08 20  00 31 55.315   -02 15 47.99  .20528 .85878  46.7 21?? 742' 140
2021 02 08 21  00 31 54.614   -02 14 16.01  .20515 .85874  46.6 21?? 747' 140
2021 02 08 22  00 31 53.899   -02 12 43.98  .20503 .85871  46.6 21?? 752' 141
2021 02 08 23  00 31 53.172   -02 11 11.91  .20491 .85867  46.6 21?? 756' 141
2021 02 09 00  00 31 52.431   -02 09 39.79  .20478 .85864  46.5 21?? 761' 141
2021 02 09 01  00 31 51.677   -02 08 07.62  .20466 .85860  46.5 21?? 766' 141
2021 02 09 02  00 31 50.909   -02 06 35.39  .20454 .85857  46.4 21?? 771' 141
2021 02 09 03  00 31 50.128   -02 05 03.13  .20442 .85854  46.4 21?? 775' 141
2021 02 09 04  00 31 49.334   -02 03 30.81  .20429 .85850  46.4 21?? 780' 142
2021 02 09 05  00 31 48.526   -02 01 58.44  .20417 .85847  46.3 21?? 785' 142
2021 02 09 06  00 31 47.705   -02 00 26.02  .20405 .85843  46.3 21?? 789' 142
2021 02 09 07  00 31 46.870   -01 58 53.56  .20393 .85840  46.3 21?? 794' 142
2021 02 09 08  00 31 46.022   -01 57 21.04  .20380 .85836  46.2 21?? 798' 142
2021 02 09 09  00 31 45.161   -01 55 48.48  .20368 .85833  46.2 21?? 803' 143